Zurück zum Katalog

IRIDIUM 33 DEB

AktivPO
NORAD 35850·DEBRIS·🇺🇸 United States

Gestartet Sep 14, 1997 von Baikonur Cosmodrome

Loading…

Nächste Überflüge (nächste 24 Stunden)

TLE

AktuellSource: Space-Track

Epoche: Sep 14, 2026, 04:39 UTC

1 35850U 97051TA  26257.19376052  .00007320  00000-0  86235-3 0  9997
2 35850  86.3486 218.2194 0007530 339.8194  20.2731 14.84649943754370

Verfolge IRIDIUM 33 DEB in Echtzeit mit AllMySat

Download on the App Store